Weather in Cirali

Turkey     36°25′00″N   30°28′39″E
temp.,
°C
wind,
m/s
gust,
m/s
humid.,
%
clouds,
%
prec.,
mm/h
press.,
hPa
HPBL,
m
22 september, wed
wed2200:00+25nnw22390 0.0 101254
03:00+24wnw22380 0.0 101018
06:00+23nw22390 0.0 100922
09:00+27ese00320 0.0 1009334
12:00+29se33320 0.0 10091716
15:00+28s43391 0.0 10071666
18:00+26s21420 0.0 1006511
21:00+23nw33393 0.0 100758
23 september, thu
thu2300:00+22nw32393 0.0 100735
03:00+21nw32390 0.0 100634
06:00+20nw22370 0.0 100652
09:00+24s12320 0.0 1006525
12:00+25se443877 0.0 10051703
15:00+24se334955 0.4 1005775
18:00+22nnw344558 0.0 1005568
21:00+19nnw56410 0.0 1007247
24 september, fri
fri2400:00+16nnw56420 0.0 1009247
03:00+15nnw57470 0.0 1010227
06:00+14nnw57480 0.0 1011220
09:00+20n45300 0.0 1012560
12:00+23e34250 0.0 10131496
15:00+24sse43260 0.0 10121220
18:00+22sw44484 0.0 1012459
21:00+19wnw33470 0.0 101465
25 september, sat
sat2500:00+19nnw34363 0.0 1016116
03:00+18nnw233540 0.0 101682
06:00+18nnw22310 0.0 101676
09:00+22se11240 0.0 1017297
12:00+25se32260 0.0 10171063
15:00+26sse43280 0.0 10161036
18:00+25sw22430 0.0 1016224
21:00+20n33540 0.0 101792
26 september, sun
sun2600:00+20n23400 0.0 101784
03:00+20nw21360 0.0 101763
06:00+20nnw22350 0.0 101657
09:00+24ene11280 0.0 1017270
12:00+27se32270 0.0 1016996
15:00+28sse32280 0.0 10151145
18:00+27sw33360 0.0 1013164
21:00+23nnw33450 0.0 101352